Voltar ao catálogo

COSMOS 1275 DEB

AtivoPO
NORAD 15767·DEBRIS·🇷🇺 Russia

Lançado Jun 4, 1981 de Plesetsk Cosmodrome

Loading…

Próximas Passagens (próximas 24 horas)

TLE

AtualizadoSource: Space-Track

Época: Sep 14, 2026, 20:11 UTC

1 15767U 81053KC  26257.84140495  .00061654  00000-0  38958-2 0  9997
2 15767  82.8806 144.2057 0005399  54.8632 305.3103 15.08755646131981

Acompanhe COSMOS 1275 DEB em tempo real com AllMySat

Download on the App Store